[[{"header":{"parameterUnit":"m.s-1","parameterCategory":1,"la1":30.2991,"la2":30.254,"lo1":-89.0895,"lo2":-89.0444,"dy":0.0017,"dx":0.0017,"nx":28,"ny":28,"refTime":"2024-05-09T21:00:00:Z","depth":0,"parameterNumber":2,"parameterNumberName":"U-component_of_WINDS"},"data":[0,0,0,0,0,0,0,0,0,0,0,0,0,0,0,0,0,0,0,0,0,0,0,0,0,0,0,0,0,0,0,0,0,0,0,0,0,0,0,0,0,0,0,0,0,0,0,0,0,0,0,0,0,0,0,0,0,0,-3.1929,-3.1929,0,-3.1941,-3.1941,-3.1941,-3.1858,-3.1856,-3.1854,-3.1852,-3.1864,-3.1866,-3.1869,0,0,0,0,0,0,0,0,0,0,0,0,0,-3.1836,-3.1839,-3.1929,-3.1929,-3.1929,-3.1941,-3.1941,-3.1941,-3.1859,-3.1856,-3.1853,-3.185,-3.1863,-3.1866,-3.1869,0,0,0,0,0,0,0,0,0,0,0,0,0,-3.1865,-3.1839,-3.1929,-3.189,-3.1886,-3.1941,-3.1941,-3.1941,-3.1859,-3.1856,-3.1852,-3.1849,-3.1862,-3.1865,-3.1869,-3.1962,0,0,-3.1881,-3.1882,0,0,0,0,0,0,0,0,-3.1864,-3.1869,-3.1895,-3.1893,-3.1889,-3.1894,-3.1912,-3.1948,-3.186,-3.187,-3.1851,-3.1847,-3.1877,-3.1879,-3.1889,-3.1962,-3.1963,-3.1881,-3.1883,-3.1885,-3.1886,0,0,0,0,0,0,0,-3.1862,-3.1868,-3.1934,-3.1896,-3.1892,-3.1872,-3.1872,-3.1919,-3.1893,-3.1869,-3.1863,-3.1865,-3.1874,-3.1885,-3.1888,-3.1963,-3.1881,-3.1884,-3.1886,-3.1888,-3.2113,-3.2117,0,0,0,0,0,0,-3.1865,-3.1867,-3.1933,-3.1934,-3.1867,-3.1876,-3.1876,-3.1896,-3.1892,-3.1888,-3.1868,-3.1861,-3.1881,-3.1884,-3.1889,-3.1997,-3.1885,-3.1888,-3.189,-3.211,-3.2114,-3.2118,0,0,0,0,0,0,-3.1863,-3.1872,-3.1933,-3.1899,-3.1905,-3.1881,-3.1904,-3.1898,-3.1909,-3.1891,-3.1886,-3.1884,-3.1878,-3.1883,-3.1944,-3.1997,-3.189,-3.1893,-3.2105,-3.2111,-3.2116,-3.2216,0,0,0,0,0,0,-3.1861,-3.1872,-3.1907,-3.19,-3.1907,-3.1989,-3.1908,-3.1901,-3.1916,-3.1907,-3.1905,-3.1902,-3.1876,-3.1939,-3.1948,-3.2,-3.1896,-3.21,-3.2108,-3.2114,-3.2208,-3.2224,-3.2238,0,0,0,0,0,-3.1858,-3.1934,-3.1909,-3.1917,-3.195,-3.1992,-3.1996,-3.1964,-3.192,-3.1956,-3.1944,-3.1902,-3.1989,-3.1946,-3.1955,-3.2009,-3.2097,-3.2106,-3.2114,-3.2201,-3.2221,-3.2238,0,0,0,0,0,0,-3.1947,-3.1932,-3.1904,-3.198,-3.1988,-3.1978,-3.2021,-3.1986,-3.2007,-3.1998,-3.1958,-3.1958,-3.2026,-3.2023,-3.1975,-3.2099,-3.2035,-3.2046,-3.2098,-3.2117,-3.2132,-3.2132,-3.1899,0,0,0,0,0,-3.1976,-3.2011,-3.1996,-3.2064,-3.207,-3.2045,-3.2062,-3.2037,-3.2043,-3.2046,-3.2039,-3.2047,-3.2076,-3.2096,-3.2122,-3.2206,-3.2205,-3.2248,-3.2263,-3.2275,-3.2286,-3.2331,-3.235,-3.2146,-3.2146,-3.2146,0,0,-3.2035,-3.2031,-3.2056,-3.2082,-3.2085,-3.2123,-3.2048,-3.2091,-3.2118,-3.2052,-3.211,-3.2105,-3.2111,-3.2184,-3.2216,-3.2184,-3.2342,-3.2286,-3.2296,-3.23,-3.2342,-3.2361,-3.2378,-3.2152,-3.2151,-3.215,0,0,-3.2163,-3.2163,-3.2221,-3.2225,-3.2231,-3.2214,-3.2228,-3.2223,-3.2217,-3.2274,-3.2225,-3.2257,-3.2308,-3.2315,-3.2325,-3.2455,-3.2417,-3.2464,-3.2544,-3.2589,-3.2605,-3.2619,-3.2667,-3.2684,-3.2474,-3.2475,-3.2475,0,-3.2236,-3.2291,-3.2255,-3.2301,-3.2314,-3.2256,-3.2315,-3.232,-3.2334,-3.2345,-3.2308,-3.2372,-3.2371,-3.2446,-3.2478,-3.2487,-3.2503,-3.2465,-3.2606,-3.2619,-3.2632,-3.2677,-3.2695,-3.248,-3.248,-3.2479,-3.2478,0,-3.2381,-3.242,-3.2465,-3.2481,-3.2499,-3.2551,-3.2523,-3.2546,-3.2519,-3.2506,-3.2565,-3.2563,-3.2587,-3.2603,-3.2577,-3.2674,-3.2654,-3.2612,-3.2548,-3.2658,-3.27,-3.2717,-3.2489,-3.2487,-3.2485,-3.2483,0,0,-3.2567,-3.2561,-3.2579,-3.2585,-3.2586,-3.2615,-3.2665,-3.2689,-3.271,-3.2721,-3.2762,-3.2806,-3.2768,-3.2779,-3.2753,-3.2792,-3.2897,-3.2746,-3.2745,-3.2775,-3.3005,-3.3038,-3.3058,-3.2871,-3.2875,-3.2877,-3.3005,0,-3.2692,-3.2777,-3.2746,-3.2832,-3.2868,-3.2813,-3.2856,-3.2862,-3.2851,-3.2879,-3.2867,-3.2899,-3.2845,-3.2852,-3.2888,-3.2877,-3.2943,-3.2867,-3.291,-3.2912,-3.2912,-3.308,-3.3114,-3.3235,-3.3021,-3.3024,-3.3026,0,-3.2851,-3.2869,-3.2959,-3.2955,-3.2968,-3.3008,-3.3028,-3.3055,-3.3061,-3.305,-3.3063,-3.3029,-3.3077,-3.3012,-3.3079,-3.3028,-3.3043,-3.304,-3.3044,-3.3048,-3.2977,-3.309,-3.3273,-3.3292,-3.3051,-3.3049,-3.3047,0,-3.2979,-3.3025,-3.3085,-3.3092,-3.3088,-3.3118,-3.3117,-3.3119,-3.3136,-3.3153,-3.3163,-3.3186,-3.3199,-3.3217,-3.3191,-3.3145,-3.3262,-3.3194,-3.3255,-3.3256,-3.3283,-3.3282,-3.3473,-3.3291,-3.329,-3.329,-3.329,0,-3.3123,-3.3181,-3.3143,-3.318,-3.3243,-3.3207,-3.327,-3.3264,-3.3266,-3.3301,-3.3255,-3.3289,-3.325,-3.3281,-3.326,-3.3319,-3.3325,-3.3318,-3.3312,-3.3323,-3.3324,-3.3334,-3.3326,-3.3295,-3.3294,-3.3293,-3.3292,0,-3.3278,-3.3254,-3.3317,-3.3308,-3.3307,-3.3354,-3.3347,-3.3381,-3.3366,-3.3411,-3.342,-3.3397,-3.3431,-3.3405,-3.3438,-3.3424,-3.3503,-3.3484,-3.3501,-3.3497,-3.3559,-3.3555,-3.3765,-3.3791,-3.3591,-3.3592,-3.3594,0,-3.3372,-3.3416,-3.3412,-3.3432,-3.3435,-3.3468,-3.3485,-3.345,-3.347,-3.3479,-3.3513,-3.3542,-3.3564,-3.362,-3.3607,-3.3632,-3.3614,-3.3686,-3.3618,-3.3628,-3.3617,-3.3616,-3.3621,-3.3701,-3.3703,-3.3705,-3.3707,0,-3.3544,-3.353,-3.3556,-3.3578,-3.36,-3.3615,-3.3627,-3.3647,-3.3612,-3.3636,-3.367,-3.3687,-3.372,-3.3751,-3.3771,-3.3771,-3.3734,-3.3728,-3.3744,-3.3756,-3.3765,-3.3763,-3.3541,-3.3724,-3.3722,-3.3721,-3.372,-3.3719,-3.3672,-3.3708,-3.3711,-3.3742,-3.3747,-3.376,-3.3792,-3.3781,-3.3808,-3.3833,-3.3811,-3.3852,-3.3856,-3.388,-3.3884,-3.3916,-3.3886,-3.3909,-3.3915,-3.3921,-3.3931,-3.3759,-3.3919,-3.3919,-3.3918,-3.3918,-3.3917,0,-3.3842,-3.3841,-3.3869,-3.3888,-3.3912,-3.3874,-3.3885,-3.3909,-3.3945,-3.3952,-3.3975,-3.4014,-3.4043,-3.4032,-3.4057,-3.4085,-3.4069,-3.4093,-3.4092,-3.4092,-3.3955,-3.394,-3.4106,-3.4106,-3.4106,-3.4106,-3.4106,-3.4106,-3.3933,-3.3993,-3.3979,-3.4041,-3.404,-3.408,-3.409,-3.4101,-3.4106,-3.4152,-3.4176,-3.4168,-3.4168,-3.4194,-3.4219,-3.4215,-3.4227,-3.4258,-3.4248,-3.4121,-3.4102,-3.4084,-3.407,-3.4261,-3.4261,-3.4383,-3.4384,-3.4385]},{"header":{"parameterUnit":"m.s-1","parameterCategory":1,"la1":30.2991,"la2":30.254,"lo1":-89.0895,"lo2":-89.0444,"dy":0.0017,"dx":0.0017,"nx":28,"ny":28,"refTime":"2024-05-09T21:00:00:Z","depth":0,"parameterNumber":3,"parameterNumberName":"V-component_of_WINDS"},"data":[0,0,0,0,0,0,0,0,0,0,0,0,0,0,0,0,0,0,0,0,0,0,0,0,0,0,0,0,0,0,0,0,0,0,0,0,0,0,0,0,0,0,0,0,0,0,0,0,0,0,0,0,0,0,0,0,0,0,-3.7373,-3.7373,0,-3.7363,-3.7363,-3.7363,-3.7312,-3.7311,-3.731,-3.7309,-3.7299,-3.73,-3.7301,0,0,0,0,0,0,0,0,0,0,0,0,0,-3.7351,-3.7351,-3.7373,-3.7373,-3.7373,-3.7363,-3.7363,-3.7363,-3.7313,-3.7311,-3.731,-3.7308,-3.7299,-3.73,-3.7301,0,0,0,0,0,0,0,0,0,0,0,0,0,-3.7352,-3.7351,-3.7373,-3.7347,-3.7344,-3.7363,-3.7363,-3.7363,-3.7313,-3.7311,-3.7309,-3.7308,-3.7298,-3.73,-3.7301,-3.7344,0,0,-3.7305,-3.7305,0,0,0,0,0,0,0,0,-3.7352,-3.7353,-3.7351,-3.7349,-3.7346,-3.7337,-3.7351,-3.7357,-3.7313,-3.7325,-3.7309,-3.7307,-3.7313,-3.7313,-3.7315,-3.7344,-3.7344,-3.7305,-3.7306,-3.7306,-3.7307,0,0,0,0,0,0,0,-3.7352,-3.7353,-3.7369,-3.7351,-3.7348,-3.7336,-3.7334,-3.7352,-3.7329,-3.7324,-3.732,-3.7319,-3.7312,-3.7314,-3.7315,-3.7343,-3.7305,-3.7306,-3.7307,-3.7307,-3.7407,-3.7409,0,0,0,0,0,0,-3.7356,-3.7354,-3.737,-3.7369,-3.7345,-3.7338,-3.7336,-3.7342,-3.7329,-3.7325,-3.7321,-3.7317,-3.7313,-3.7313,-3.7314,-3.7364,-3.7306,-3.7307,-3.7308,-3.7405,-3.7407,-3.7409,0,0,0,0,0,0,-3.7355,-3.7358,-3.737,-3.736,-3.7361,-3.734,-3.7347,-3.7342,-3.7345,-3.7327,-3.7323,-3.7328,-3.7311,-3.7312,-3.7337,-3.7363,-3.7308,-3.7309,-3.7403,-3.7406,-3.7408,-3.7464,0,0,0,0,0,0,-3.7355,-3.7358,-3.7374,-3.7361,-3.7362,-3.7393,-3.7349,-3.7344,-3.7347,-3.7342,-3.7332,-3.7329,-3.731,-3.7335,-3.7338,-3.7364,-3.731,-3.74,-3.7404,-3.7407,-3.746,-3.7469,-3.7476,0,0,0,0,0,-3.7354,-3.7391,-3.7375,-3.7378,-3.7382,-3.7395,-3.7395,-3.7373,-3.7349,-3.7366,-3.7354,-3.7329,-3.7359,-3.7338,-3.7341,-3.7367,-3.7399,-3.7403,-3.7407,-3.7456,-3.7467,-3.7476,0,0,0,0,0,0,-3.7408,-3.7389,-3.7371,-3.7404,-3.7402,-3.7386,-3.7406,-3.7385,-3.7389,-3.7384,-3.7356,-3.7355,-3.7384,-3.7378,-3.7355,-3.7408,-3.7375,-3.738,-3.7411,-3.7421,-3.7429,-3.743,-3.7311,0,0,0,0,0,-3.7424,-3.7436,-3.7418,-3.7449,-3.7449,-3.7428,-3.7433,-3.7416,-3.7412,-3.7411,-3.7401,-3.7398,-3.7407,-3.7414,-3.7421,-3.7459,-3.7456,-3.7478,-3.7486,-3.7492,-3.7497,-3.7517,-3.7526,-3.7423,-3.7423,-3.7423,0,0,-3.7456,-3.7447,-3.7457,-3.746,-3.7456,-3.7469,-3.7427,-3.7443,-3.7453,-3.7413,-3.7436,-3.7429,-3.7424,-3.7455,-3.7469,-3.7451,-3.7525,-3.7498,-3.7503,-3.7504,-3.7522,-3.7532,-3.754,-3.7426,-3.7426,-3.7425,0,0,-3.7523,-3.7517,-3.7542,-3.7538,-3.7532,-3.7518,-3.7524,-3.7512,-3.7505,-3.7527,-3.7498,-3.7509,-3.7525,-3.7523,-3.7524,-3.7588,-3.7565,-3.7591,-3.7633,-3.7652,-3.766,-3.7668,-3.7691,-3.7699,-3.7596,-3.7596,-3.7596,0,-3.7564,-3.7583,-3.7557,-3.7575,-3.7577,-3.7541,-3.7566,-3.7564,-3.7561,-3.7563,-3.7544,-3.7563,-3.7557,-3.7587,-3.7603,-3.7605,-3.7611,-3.7593,-3.7661,-3.7668,-3.7674,-3.7696,-3.7705,-3.7599,-3.7599,-3.7599,-3.7598,0,-3.7634,-3.7647,-3.7668,-3.7665,-3.767,-3.7691,-3.7669,-3.7677,-3.7659,-3.7647,-3.767,-3.7662,-3.7666,-3.7672,-3.7655,-3.77,-3.7689,-3.7666,-3.7632,-3.7688,-3.7708,-3.7716,-3.7604,-3.7603,-3.7602,-3.7601,0,0,-3.7735,-3.7717,-3.7725,-3.7723,-3.7713,-3.7723,-3.7743,-3.7747,-3.7754,-3.7753,-3.7769,-3.7783,-3.7761,-3.7762,-3.7744,-3.7761,-3.7813,-3.7736,-3.7735,-3.775,-3.7862,-3.7879,-3.7889,-3.7797,-3.7799,-3.78,-3.7862,0,-3.7798,-3.783,-3.7807,-3.7843,-3.7855,-3.7821,-3.7838,-3.7834,-3.7823,-3.7831,-3.7819,-3.783,-3.78,-3.78,-3.7815,-3.7803,-3.7835,-3.7798,-3.7812,-3.7813,-3.7815,-3.79,-3.7919,-3.7978,-3.787,-3.7871,-3.7872,0,-3.7876,-3.7878,-3.7915,-3.7902,-3.7906,-3.7922,-3.7924,-3.7932,-3.7927,-3.7918,-3.7919,-3.7897,-3.7915,-3.7881,-3.7906,-3.7882,-3.7886,-3.7881,-3.7883,-3.7883,-3.7846,-3.7903,-3.7996,-3.8005,-3.7884,-3.7883,-3.7882,0,-3.7946,-3.7958,-3.7981,-3.7981,-3.7966,-3.7978,-3.7973,-3.7965,-3.7969,-3.7971,-3.7973,-3.7977,-3.7979,-3.7983,-3.7962,-3.7939,-3.799,-3.7954,-3.7983,-3.7984,-3.7996,-3.7995,-3.8091,-3.7998,-3.7998,-3.7998,-3.7998,0,-3.8019,-3.8044,-3.8012,-3.8027,-3.8053,-3.8026,-3.8053,-3.8044,-3.8037,-3.805,-3.802,-3.8032,-3.8004,-3.8014,-3.7998,-3.8021,-3.8022,-3.8016,-3.8011,-3.8018,-3.8019,-3.8021,-3.8017,-3.8,-3.8,-3.7999,-3.7999,0,-3.8102,-3.8082,-3.8105,-3.8089,-3.8086,-3.8106,-3.8092,-3.8105,-3.8092,-3.8108,-3.811,-3.8089,-3.8099,-3.8078,-3.8085,-3.8075,-3.8107,-3.8096,-3.8109,-3.8106,-3.8136,-3.8134,-3.8236,-3.8249,-3.8148,-3.8149,-3.815,0,-3.815,-3.8168,-3.8154,-3.8159,-3.8155,-3.8165,-3.8169,-3.8143,-3.8148,-3.8143,-3.8156,-3.8163,-3.8167,-3.8184,-3.817,-3.8175,-3.8164,-3.82,-3.8165,-3.8171,-3.8165,-3.8164,-3.8166,-3.8207,-3.8208,-3.8209,-3.821,0,-3.8238,-3.8227,-3.8233,-3.8235,-3.824,-3.8241,-3.8239,-3.8246,-3.8218,-3.8225,-3.8234,-3.8237,-3.8244,-3.8251,-3.8253,-3.8248,-3.8225,-3.8221,-3.8228,-3.8236,-3.8243,-3.824,-3.8129,-3.8219,-3.8218,-3.8218,-3.8217,-3.8217,-3.8305,-3.8319,-3.8311,-3.8318,-3.8314,-3.8313,-3.8324,-3.8312,-3.8319,-3.8322,-3.8306,-3.8319,-3.8312,-3.8312,-3.8309,-3.8319,-3.8303,-3.8313,-3.8316,-3.8319,-3.8323,-3.8241,-3.8319,-3.8319,-3.8318,-3.8318,-3.8318,0,-3.8392,-3.8384,-3.8391,-3.839,-3.8395,-3.8372,-3.8369,-3.8376,-3.8387,-3.8383,-3.8387,-3.8397,-3.8404,-3.839,-3.8395,-3.8405,-3.8395,-3.8407,-3.8406,-3.8406,-3.8337,-3.8331,-3.8416,-3.8416,-3.8416,-3.8416,-3.8416,-3.8415,-3.8437,-3.8459,-3.8447,-3.8467,-3.8459,-3.8471,-3.8471,-3.847,-3.8467,-3.8479,-3.8484,-3.8475,-3.8467,-3.847,-3.8476,-3.8471,-3.8475,-3.8491,-3.8483,-3.842,-3.841,-3.8401,-3.8395,-3.8492,-3.8492,-3.855,-3.8551,-3.8551]}]]